NOAA 17 DEB, 48766

Orbit data source: Space-Track

NOAA 17 DEB, 48766 is space debris in SSO originally from a launch on Mon, 24 Jun 2002 UTC launched from the Air Force Western Test Range (AFWTR). Debris objects in space refer to the collection of defunct objects orbiting the Earth. Examples of debris include non-operational satellites, rocket bodies, and fragments generated from explosions, collisions, or faulty payload assembly.

Loading next visibility...
Identifier
48766, 2002-032DB
Orbit
SSO
Country
Flag of USUS
Related business
Manufacturer
Unknown
Mission
Spacecraft
Bus & Motor
Unknown
Mass
Unknown
Launch date (UTC)
2002-06-24 (23 years ago)
Launch vehicle
Unknown
Launch site
Air Force Western Test Range (AFWTR)
Object type
Payload
Rocket body
Debris
Shape & HBR
Unknown shape, 0.1 m
Radar Cross Section
Small (<0.1 m²)

Expand to show TLE details & history
Last TLE update: 17 hours ago

TLE from 17 hours ago
0 NOAA 17 DEB
1 48766U 02032DB  25349.83285101  .00007023  00000-0  16472-2 0  9993
2 48766  98.5951 301.4615 0009325  80.9478 279.2773 14.54787769244549
Epoch: 2025-12-15T19:59Z
TLE epoch observation values (Epoch: 2025-12-15T19:59:18.327Z)
Latitude
Longitude
-83.09061°
Altitude
711.96 km
Speed
7.5 km/s
True Right ascension
20h 05m 50s
True Declination
0° 00' 00"
Sunlit
Object was in daylight at epoch
Visualization orbit readout
Latitude
Unknown
Longitude
Unknown
Altitude
Unknown
Speed
Unknown
Apparent Right ascension
Unknown
Apparent Declination
Unknown
Sunlit
N/A
Visualization observer readout
Local Sidereal Time
11:31:07
Azimuth
Unknown
Elevation
Unknown
Doppler factor
Unknown
Orbital elements
Apogee altitude
713.768 km
Perigee altitude
700.554 km
Semi-major axis
7,085.298 km
Eccentricity
0.00093
Inclination
98.5951°
RAAN
301.4615°
Arg. of periapsis
80.9478°
True anomaly
279.17182°
Mean anomaly
279.2773°
Eccentric anomaly
279.22456°
Mean motion
3.6392 °/min
Orbital period
98.92 mins
BSTAR
0.0016472
Loading maneuver chart data...
Computing Atmospheric mass density...
Loading historical data...
Loading historical data...
Loading historical data...
Loading historical data...
Loading historical data...
Loading historical data...
Loading historical data...

Documentation

Showing up to 5 results
|